Weather History for Wheeling, WV

Change the Weather History Date:

Monday, January 21, 2013

  Actual Average Record
Temperature  
Mean Temperature 18 °F 29 °F  
Max Temperature 25 °F 36 °F 54 °F (2006)
Min Temperature 10 °F 22 °F 2 °F (2014)
Degree Days  
Heating Degree Days 47 36  
Month to date heating degree days 636 756  
Since 1 July heating degree days 2662 2881  
Cooling Degree Days 0    
Month to date cooling degree days 0  
Year to date cooling degree days 0  
Moisture  
Dew Point 10 °F    
Average Humidity 63    
Maximum Humidity 70    
Minimum Humidity 55    
Precipitation  
Precipitation T in 0.06 in 0.96 in (1990)
Month to date precipitation 0.58 2.05  
Sea Level Pressure  
Sea Level Pressure 30.00 in    
Wind  
Wind Speed 12 mph (West)    
Max Wind Speed 25 mph    
Max Gust Speed 36 mph    
Visibility 7 miles    
Events Snow    
T = Trace of Precipitation, MM = Missing Value Source: NWS Daily Summary

Daily Weather History Graph

Daily Weather History Graph

Search for Another Location

Airport:

Trip Planner

Search our weather history database for the weather conditions in past years. The results will help you decide how hot, cold, wet, or windy it might be!

Date:

Astronomy

Jan. 21, 2013 Rise Set
Actual Time 7:39 AM EST 5:28 PM EST
Civil Twilight 7:10 AM EST 5:57 PM EST
Nautical Twilight 6:37 AM EST 6:31 PM EST
Astronomical Twilight 6:05 AM EST 7:03 PM EST
Moon 1:07 PM EST (1/21) 3:06 AM EST (1/21)
Length of Visible Light 10h 47m
Length of Day
9h 48m
Waxing Gibbous, 75% of the Moon is Illuminated
Jan 21
Waxing Gibbous
Jan 26
Full
Feb 3
Last Quarter
Feb 10
New
Feb 17
First Quarter

Hourly Weather History & Observations

Time (EST) Temp. Windchill Dew Point Humidity Pressure Visibility Wind Dir Wind Speed Gust Speed Precip Events Conditions
12:53 AM 23.0 °F 13.9 °F 10.9 °F 60% 30.12 in 10.0 mi West 8.1 mph - N/A   Overcast
1:53 AM 23.0 °F 15.8 °F 10.9 °F 60% 30.12 in 10.0 mi West 5.8 mph - N/A   Overcast
2:53 AM 23.0 °F 13.1 °F 10.0 °F 58% 30.12 in 10.0 mi WSW 9.2 mph - N/A   Overcast
3:53 AM 21.9 °F 14.5 °F 10.9 °F 63% 30.10 in 10.0 mi WSW 5.8 mph - N/A   Overcast
4:53 AM 21.9 °F 15.7 °F 10.9 °F 63% 30.08 in 10.0 mi WSW 4.6 mph - N/A   Overcast
5:53 AM 21.9 °F 14.5 °F 12.0 °F 66% 30.07 in 10.0 mi SW 5.8 mph - N/A   Overcast
6:53 AM 23.0 °F 14.7 °F 12.0 °F 63% 30.07 in 10.0 mi WSW 6.9 mph - N/A   Overcast
7:53 AM 23.0 °F 15.8 °F 12.0 °F 63% 30.06 in 10.0 mi SW 5.8 mph - N/A   Overcast
8:53 AM 23.0 °F 13.9 °F 12.0 °F 63% 30.05 in 10.0 mi WSW 8.1 mph - N/A   Overcast
9:53 AM 24.1 °F 16.0 °F 10.9 °F 57% 30.04 in 10.0 mi WSW 6.9 mph 19.6 mph N/A   Overcast
10:53 AM 25.0 °F 15.5 °F 10.0 °F 53% 30.02 in 10.0 mi West 9.2 mph - N/A   Overcast
11:53 AM 25.0 °F 14.2 °F 10.0 °F 53% 29.98 in 10.0 mi WSW 11.5 mph 18.4 mph N/A   Overcast
12:53 PM 24.1 °F 9.0 °F 10.0 °F 55% 29.96 in 10.0 mi WSW 21.9 mph 28.8 mph N/A   Overcast
1:29 PM 24.8 °F 10.0 °F 12.2 °F 59% 29.90 in 2.5 mi West 21.9 mph 28.8 mph 0.00 in Snow Light Snow
1:37 PM 24.8 °F 14.0 °F 15.8 °F 69% 29.90 in 1.5 mi West 11.5 mph 28.8 mph 0.00 in Snow Light Snow
1:40 PM 24.8 °F 11.1 °F 15.8 °F 69% 29.90 in 4.0 mi WSW 18.4 mph 24.2 mph 0.00 in Snow Light Snow
1:53 PM 24.1 °F 9.8 °F 12.9 °F 62% 29.96 in 8.0 mi West 19.6 mph 27.6 mph 0.00 in   Overcast
1:58 PM 24.8 °F 9.6 °F 14.0 °F 64% 29.90 in 2.0 mi West 23.0 mph 29.9 mph 0.00 in Snow Light Snow
2:01 PM 23.0 °F 9.2 °F 15.8 °F 74% 29.91 in 0.5 mi West 17.3 mph 33.4 mph 0.00 in Snow Snow
2:12 PM 21.2 °F 6.4 °F 15.8 °F 80% 29.91 in 1.0 mi West 18.4 mph 28.8 mph 0.00 in Snow Light Snow
2:15 PM 21.2 °F 7.3 °F 15.8 °F 80% 29.91 in 4.0 mi West 16.1 mph 26.5 mph 0.00 in Snow Light Snow
2:26 PM 23.0 °F 8.7 °F 15.8 °F 74% 29.91 in 10.0 mi West 18.4 mph 24.2 mph 0.00 in   Overcast
2:48 PM 24.8 °F 10.0 °F 14.0 °F 64% 29.91 in 2.0 mi West 21.9 mph 29.9 mph 0.00 in Snow Light Snow
2:53 PM 23.0 °F 10.1 °F 14.0 °F 68% 29.98 in 1.5 mi West 15.0 mph 31.1 mph 0.00 in Snow Light Snow
2:57 PM 23.0 °F 7.6 °F 12.2 °F 63% 29.92 in 2.0 mi WSW 21.9 mph 33.4 mph 0.00 in Snow Light Snow
3:04 PM 23.0 °F 7.6 °F 12.2 °F 63% 29.92 in 5.0 mi West 21.9 mph 32.2 mph 0.00 in Snow Light Snow
3:08 PM 23.0 °F 8.7 °F 14.0 °F 68% 29.92 in 2.0 mi West 18.4 mph 31.1 mph 0.00 in Snow Light Snow
3:17 PM 23.0 °F 6.6 °F 14.0 °F 68% 29.92 in 3.0 mi WSW 25.3 mph 34.5 mph 0.00 in Snow Light Snow
3:26 PM 24.8 °F 10.7 °F 10.4 °F 54% 29.92 in 9.0 mi West 19.6 mph 34.5 mph 0.00 in   Scattered Clouds
3:53 PM 23.0 °F 8.7 °F 10.0 °F 58% 29.99 in 10.0 mi West 18.4 mph 28.8 mph 0.00 in   Mostly Cloudy
4:53 PM 21.9 °F 8.2 °F 9.0 °F 58% 30.01 in 10.0 mi West 16.1 mph 24.2 mph N/A   Overcast
5:29 PM 19.4 °F 6.0 °F 12.2 °F 74% 29.97 in 1.8 mi West 13.8 mph 23.0 mph 0.00 in Snow Light Snow
5:38 PM 19.4 °F 5.5 °F 12.2 °F 74% 29.97 in 3.0 mi West 15.0 mph 21.9 mph 0.00 in Snow Light Snow
5:53 PM 19.0 °F 5.6 °F 10.9 °F 71% 30.03 in 10.0 mi West 13.8 mph 19.6 mph 0.00 in   Overcast
6:15 PM 17.6 °F 3.2 °F 10.4 °F 73% 29.98 in 3.0 mi West 15.0 mph 24.2 mph 0.00 in Snow Light Snow
6:22 PM 17.6 °F 5.7 °F 12.2 °F 79% 29.99 in 2.5 mi West 10.4 mph 19.6 mph 0.00 in Snow Light Snow
6:30 PM 17.6 °F 5.7 °F 10.4 °F 73% 29.99 in 7.0 mi WNW 10.4 mph 20.7 mph 0.00 in Snow Light Snow
6:53 PM 17.1 °F 1.0 °F 10.0 °F 74% 30.06 in 2.0 mi WNW 18.4 mph 25.3 mph 0.00 in Snow Light Snow
7:04 PM 15.8 °F -0.2 °F 8.6 °F 73% 30.00 in 4.0 mi West 17.3 mph 25.3 mph 0.00 in Snow Light Snow
7:23 PM 15.8 °F 3.4 °F 6.8 °F 68% 30.01 in 9.0 mi West 10.4 mph 29.9 mph 0.00 in   Overcast
7:53 PM 16.0 °F 1.7 °F 1.9 °F 54% 30.08 in 10.0 mi WNW 13.8 mph 23.0 mph 0.00 in   Mostly Cloudy
8:53 PM 14.0 °F -1.4 °F -0.0 °F 54% 30.09 in 10.0 mi West 15.0 mph 20.7 mph N/A   Mostly Cloudy
9:53 PM 12.9 °F -0.9 °F 5.0 °F 71% 30.10 in 7.0 mi West 11.5 mph 24.2 mph N/A   Overcast
10:17 PM 12.2 °F -2.5 °F 6.8 °F 79% 30.04 in 3.0 mi West 12.7 mph 21.9 mph 0.00 in Snow Light Snow
10:29 PM 12.2 °F -6.3 °F 1.4 °F 62% 30.04 in 9.0 mi West 20.7 mph 33.4 mph 0.00 in   Overcast
10:53 PM 12.9 °F -0.2 °F 1.9 °F 62% 30.12 in 8.0 mi West 10.4 mph 24.2 mph 0.00 in   Overcast
11:11 PM 12.2 °F -4.3 °F 3.2 °F 67% 30.05 in 10.0 mi West 16.1 mph 21.9 mph N/A   Overcast
11:31 PM 10.4 °F -7.2 °F -0.4 °F 62% 30.05 in 10.0 mi West 17.3 mph 26.5 mph N/A   Mostly Cloudy
11:53 PM 10.9 °F -5.4 °F -2.0 °F 56% 30.13 in 10.0 mi West 15.0 mph 26.5 mph N/A   Scattered Clouds